London, United Kingdom

9:39 AM BST on September 25, 2017 (GMT +0100)
Heathrow

Weather History for EGLL - October, 2012

Change the Weather History Date:

Friday, October 5, 2012

  Actual Average Record
Temperature  
Mean Temperature 54 °F -  
Max Temperature 60 °F 57 °F 68 °F (2001)
Min Temperature 48 °F 45 °F 39 °F (1999)
Degree Days  
Heating Degree Days 11    
Growing Degree Days 4 (Base 50)    
Moisture  
Dew Point 50 °F    
Average Humidity 85    
Maximum Humidity 100    
Minimum Humidity 55    
Precipitation  
Precipitation 0.16 in - - ()
Sea Level Pressure  
Sea Level Pressure 29.73 in    
Wind  
Wind Speed 9 mph ()    
Max Wind Speed 23 mph    
Max Gust Speed -    
Visibility 5.2 miles    
Events Rain    
Averages and records for this station are not official NWS values.
T = Trace of Precipitation, MM = Missing Value Source: Averaged Metar Reports

Daily Weather History Graph

Daily Weather History Graph

Search for Another Location

Airport or City:

Trip Planner

Search our weather history database for the weather conditions in past years. The results will help you decide how hot, cold, wet, or windy it might be!

Date:

Astronomy

Oct. 05, 2012 Rise Set
Actual Time 7:09 AM BST 6:29 PM BST
Civil Twilight 6:36 AM BST 7:02 PM BST
Nautical Twilight 5:57 AM BST 7:41 PM BST
Astronomical Twilight 5:18 AM BST 8:20 PM BST
Moon 9:07 PM BST (10/5) 12:38 PM BST (10/5)
Length of Visible Light 12h 26m
Length of Day
11h 20m
Waning Gibbous, 76% of the Moon is Illuminated
Oct 5
Waning Gibbous
Oct 8
Last Quarter
Oct 15
New
Oct 22
First Quarter
Oct 29
Full

Hourly Weather History & Observations

Time (BST) Temp. Dew Point Humidity Pressure Visibility Wind Dir Wind Speed Gust Speed Precip Events Conditions
12:20 AM 51.8 °F 48.2 °F 88% 29.77 in 5.6 mi South 4.6 mph - N/A Rain Rain
12:50 AM 51 °F 49 °F 90% 29.75 in 6 mi SE 5.8 mph - - Rain Light Rain
12:50 AM 51.8 °F 48.2 °F 88% 29.74 in 6.2 mi SSE 4.6 mph - N/A Rain Light Rain
1:20 AM 51.8 °F 50.0 °F 94% 29.71 in 6.2 mi SE 6.9 mph - N/A Rain Rain
1:50 AM 51.8 °F 50.0 °F 94% 29.68 in 4.3 mi ESE 6.9 mph - N/A Rain Rain
2:20 AM 51.8 °F 50.0 °F 94% 29.65 in 3.7 mi ESE 9.2 mph - N/A Rain Light Rain
2:50 AM 51.8 °F 51.8 °F 100% 29.59 in 3.1 mi SE 10.4 mph - N/A Rain Rain
3:20 AM 53.6 °F 51.8 °F 94% 29.56 in 2.2 mi SSE 9.2 mph - N/A Rain Heavy Rain
3:50 AM 57 °F 56 °F 96% 29.53 in 5 mi South 16.1 mph - - Rain Light Rain
3:50 AM 57.2 °F 55.4 °F 94% 29.53 in 3.1 mi SSW 13.8 mph - N/A Rain Rain
4:20 AM 59.0 °F 57.2 °F 94% 29.50 in 3.7 mi SSW 15.0 mph - N/A Rain Light Rain
4:50 AM 59.0 °F 57.2 °F 94% 29.50 in 3.7 mi SW 18.4 mph - N/A Rain Light Rain
5:20 AM 60.8 °F 57.2 °F 88% 29.50 in 6.2 mi SW 21.9 mph - N/A Rain Light Rain
5:50 AM 60.8 °F 59.0 °F 94% 29.50 in 3.7 mi WSW 23.0 mph - N/A Rain Rain
6:20 AM 57.2 °F 55.4 °F 94% 29.56 in 6.2 mi West 21.9 mph - N/A   Mostly Cloudy
6:50 AM 53 °F 50 °F 86% 29.65 in 19 mi WNW 16.1 mph - - Rain Rain
6:50 AM 53.6 °F 50.0 °F 88% 29.65 in 6.2 mi WNW 12.7 mph - N/A   Mostly Cloudy
7:20 AM 51.8 °F 50.0 °F 94% 29.62 in 6.2 mi NW 4.6 mph - N/A   Partly Cloudy
7:50 AM 51.8 °F 50.0 °F 94% 29.65 in 6.2 mi SW 6.9 mph - N/A   Partly Cloudy
8:20 AM 53.6 °F 50.0 °F 88% 29.68 in 6.2 mi West 13.8 mph - N/A   Partly Cloudy
8:50 AM 53.6 °F 50.0 °F 88% 29.68 in 6.2 mi West 12.7 mph - N/A   Partly Cloudy
9:20 AM 53.6 °F 50.0 °F 88% 29.71 in 6.2 mi West 13.8 mph - N/A   Partly Cloudy
9:50 AM 55 °F 51 °F 80% 29.73 in 25 mi WSW 12.7 mph - -   Mostly Cloudy
9:50 AM 55.4 °F 50.0 °F 82% 29.71 in 6.2 mi West 13.8 mph - N/A   Partly Cloudy
10:20 AM 55.4 °F 50.0 °F 82% 29.74 in 6.2 mi West 13.8 mph - N/A   Partly Cloudy
10:50 AM 57.2 °F 50.0 °F 77% 29.74 in 6.2 mi West 16.1 mph - N/A   Partly Cloudy
11:20 AM 59.0 °F 50.0 °F 72% 29.74 in 6.2 mi West 15.0 mph - N/A   Partly Cloudy
11:50 AM 59.0 °F 48.2 °F 67% 29.77 in 6.2 mi West 17.3 mph - N/A   Partly Cloudy
12:20 PM 59.0 °F 48.2 °F 67% 29.77 in 6.2 mi West 16.1 mph - N/A   Partly Cloudy
12:50 PM 59 °F 47 °F 55% 29.79 in 28 mi WSW 18.4 mph - -   Mostly Cloudy
12:50 PM 59.0 °F 48.2 °F 67% 29.80 in 6.2 mi West 20.7 mph - N/A   Scattered Clouds
1:20 PM 60.8 °F 48.2 °F 63% 29.80 in 6.2 mi West 13.8 mph - N/A   Scattered Clouds
1:50 PM 59.0 °F 46.4 °F 63% 29.80 in 6.2 mi West 12.7 mph - N/A   Scattered Clouds
2:20 PM 57.2 °F 48.2 °F 72% 29.80 in 6.2 mi West 12.7 mph - N/A   Scattered Clouds
2:50 PM 57.2 °F 48.2 °F 72% 29.80 in 6.2 mi West 11.5 mph - N/A   Partly Cloudy
3:20 PM 57.2 °F 48.2 °F 72% 29.80 in 6.2 mi West 9.2 mph - N/A   Partly Cloudy
3:50 PM 57 °F 48 °F 64% 29.82 in 22 mi West 9.2 mph - - Rain Rain
3:50 PM 57.2 °F 48.2 °F 72% 29.83 in 6.2 mi West 11.5 mph - N/A   Partly Cloudy
4:20 PM 55.4 °F 50.0 °F 82% 29.83 in 6.2 mi West 9.2 mph - N/A Rain Light Rain
4:50 PM 55.4 °F 50.0 °F 82% 29.83 in 6.2 mi West 6.9 mph - N/A Rain Light Rain
5:20 PM 53.6 °F 50.0 °F 88% 29.83 in 6.2 mi West 6.9 mph - N/A Rain Light Rain
5:50 PM 53.6 °F 50.0 °F 88% 29.83 in 4.3 mi West 5.8 mph - N/A Rain Rain
6:20 PM 53.6 °F 50.0 °F 88% 29.83 in 3.7 mi WSW 6.9 mph - N/A Rain Rain
6:50 PM 52 °F 50 °F 92% 29.85 in 2 mi SW 6.9 mph - - Rain Rain
6:50 PM 51.8 °F 50.0 °F 94% 29.83 in 4.3 mi WSW 8.1 mph - N/A Rain Rain
7:20 PM 51.8 °F 50.0 °F 94% 29.86 in 4.3 mi NNW 5.8 mph - N/A Rain Rain
7:50 PM 50.0 °F 48.2 °F 94% 29.83 in 4.3 mi Variable 2.3 mph - N/A Rain Light Rain
8:20 PM 50.0 °F 46.4 °F 87% 29.83 in 6.2 mi Variable 2.3 mph - N/A Rain Light Rain
8:50 PM 50.0 °F 46.4 °F 87% 29.86 in 4.3 mi Variable 3.5 mph - N/A Rain Light Rain
9:20 PM 50.0 °F 46.4 °F 87% 29.83 in 3.7 mi Variable 3.5 mph - N/A Rain Light Rain
9:50 PM 48 °F 47 °F 95% 29.84 in 2 mi NNE 3.5 mph - - Rain Light Rain
9:50 PM 48.2 °F 46.4 °F 93% 29.83 in - Variable 3.5 mph - N/A Rain Rain
10:20 PM 48.2 °F 46.4 °F 93% 29.83 in 1.9 mi ENE 4.6 mph - N/A Rain Rain
10:50 PM 48.2 °F 46.4 °F 93% 29.83 in 2.5 mi ENE 4.6 mph - N/A Rain Rain
11:20 PM 48.2 °F 46.4 °F 93% 29.80 in 1.9 mi NE 4.6 mph - N/A Rain Rain
11:50 PM 48.2 °F 46.4 °F 93% 29.80 in 3.1 mi NE 4.6 mph - N/A Rain Rain